Volver al catálogo

DELTA 1 DEB

ActivoSSO
NORAD 10712·DEBRIS·🇺🇸 United States

Lanzado Jul 29, 1976 desde Vandenberg Space Force Base

Loading…

Próximos Pases (próximas 24 horas)

TLE

ActualizadoSource: Space-Track

Época: Sep 14, 2026, 08:04 UTC

1 10712U 76077AH  26257.33647360  .00000975  00000-0  75082-2 0  9997
2 10712 102.2230  31.4551 0073217 291.8298  95.2627 12.40689052258712

Sigue DELTA 1 DEB en tiempo real con AllMySat

Download on the App Store